User: anonymous   Login
Location: Go�ngahuizen
(53.0821°N, 5.8849°E)
Time: 21:11:44
(UTC+00:00)
Language:

STARLINK-1239 - Orbit

View from above orbital plane
View from above orbital plane
View from above satellite
View from above satellite

Ground track
Ground track

The orbit data is extracted from the following two-line orbital elements,

1 45193U 20012R   20185.66668981 -.00033439  00000-0 -22865-2 0  9992
2 45193  53.0010   1.7564 0001487 109.3921 268.8202 15.05581768 21165
Epoch (UTC): 03 July 2020 16:00:02
Eccentricity: 0.0001487
inclination: 53.0010°
perigee height: 548 km
apogee height: 551 km
right ascension of ascending node: 1.7564°
argument of perigee: 109.3921°
revolutions per day: 15.05581768
mean anomaly at epoch: 268.8202°
orbit number at epoch: 2116

The dashed part of the orbit path shows where the satellite is in the earth's shadow,  

DLR